Regional Weather Roundup
Issued by NWS

Home | Current Version | Previous Version | Text Only | Print | Product List | Glossary Off
Versions: 1 2 3 4 5 6 7 8 9 10 11 12 13 14 15 16 17 18 19 20 21 22 23 24 25 26 27 28 29 30 31 32 33 34 35 36 37 38 39 40 41 42 43 44 45 46 47 48 49 50

000
ASUS45 KCYS 180610
RWRWY

WYOMING REGIONAL WEATHER ROUNDUP
NATIONAL WEATHER SERVICE CHEYENNE WY
1100 PM MST WED DEC 17 2014

NOTE:  "FAIR" INDICATES FEW OR NO CLOUDS BELOW 12,000 FEET
WITH NO SIGNIFICANT WEATHER AND/OR OBSTRUCTIONS TO VISIBILITY.

WYZ001-180700-
YELLOWSTONE NATIONAL PARK

CITY           SKY/WX    TMP DP  RH WIND       PRES   REMARKS
LK YELLOWSTONE   N/A     16  13  88 CALM      30.00S
6HR MIN TEMP:  16; 6HR MAX TEMP:  21;

W YELLOWSTONE  NOT AVBL

$$
WYZ002>013-054>058-071-098>099-180700-
NORTHERN WYOMING

CITY           SKY/WX    TMP DP  RH WIND       PRES   REMARKS
JACKSON        MOCLDY    12  12 100 NE7       30.02S WCI   2
CODY           FAIR      25  18  74 CALM      29.93R
GREYBULL       FAIR      12   9  87 W6        30.01R WCI   3
6HR MIN TEMP:  11; 6HR MAX TEMP:  23;

WORLAND        FAIR       5   2  87 SW5       29.99R WCI  -4
6HR MIN TEMP:   3; 6HR MAX TEMP:  13;

SHERIDAN       FAIR      17  12  80 CALM      29.94R
6HR MIN TEMP:  13; 6HR MAX TEMP:  22;

BUFFALO        FAIR      24  17  74 CALM      29.94R
6HR MIN TEMP:  23; 6HR MAX TEMP:  28;

GILLETTE       FAIR      27  20  75 S7        29.94S WCI  19
6HR MIN TEMP:  12; 6HR MAX TEMP:  27;

HULETT           N/A    N/A N/A N/A MISG        N/A
NEWCASTLE      FOG       14  14 100 CALM      29.99S VSB 1/2

$$
WYZ014>020-022>026-101>103-180700-
CENTRAL WYOMING

CITY           SKY/WX    TMP DP  RH WIND       PRES   REMARKS
BIG PINEY      FAIR      10   6  84 E6        30.03R WCI   0
6HR MIN TEMP:  10; 6HR MAX TEMP:  26;

PINEDALE       CLOUDY    18  14  86 W3        30.03S
DUBOIS         MOCLDY    23  14  68 NW12      29.96R WCI  12
LANDER         FOG       -1  -4  87 CALM      29.97S VSB 1
6HR MIN TEMP:  -1; 6HR MAX TEMP:  11;

RIVERTON       HAZE      15  10  80 CALM      29.99R VSB 1/4
6HR MIN TEMP:  14; 6HR MAX TEMP:  18;

CASPER         FAIR      20  14  77 W7        29.96R WCI  11
6HR MIN TEMP:  17; 6HR MAX TEMP:  28;

DOUGLAS        FAIR      14  10  84 CALM      29.98R
6HR MIN TEMP:  12; 6HR MAX TEMP:  27;


$$
WYZ021-027>030-104>119-180700-
SOUTHERN WYOMING

CITY           SKY/WX    TMP DP  RH WIND       PRES   REMARKS
EVANSTON       CLOUDY    27  21  78 W8        30.04R WCI  19
6HR MIN TEMP:  25; 6HR MAX TEMP:  30;

KEMMERER       MOCLDY    19  18  93 CALM      30.02S
FORT BRIDGER   CLOUDY    29  22  73 W6        30.06R WCI  23
ROCK SPRINGS   FAIR      18  15  88 W3        30.02R
6HR MIN TEMP:  14; 6HR MAX TEMP:  24;

DIXON          CLOUDY   N/A N/A N/A CALM      30.07S HAZE
RAWLINS        FAIR      19  14  81 SW12      29.99R WCI   7
6HR MIN TEMP:  13; 6HR MAX TEMP:  22;

SARATOGA       FAIR      10   9  92 SE5       30.01S WCI   2
LARAMIE        FAIR       8   5  87 S8        29.96S WCI  -4
6HR MIN TEMP:   8; 6HR MAX TEMP:  24;

CHEYENNE       FAIR      23  15  71 NW5       29.96S WCI  17
6HR MIN TEMP:  23; 6HR MAX TEMP:  37;

TORRINGTON     FOG       14  12  92 E5        30.00S VSB 1/4 WCI   6
6HR MIN TEMP:  13; 6HR MAX TEMP:  18;

PINE BLUFFS    CLOUDY    27  21  80 W3        29.98S

$$



USA.gov is the U.S. government's official web portal to all federal, state and local government web resources and services.